Other Public Products
Issued by NWS Grand Forks, ND

Home | Current Version | Previous Version | Text Only | Print | Product List | Glossary Off
Versions: 1 2 3 4 5 6 7 8 9 10 11 12 13 14 15 16 17 18 19 20 21 22 23 24 25 26 27 28 29 30 31 32 33 34 35 36 37 38 39 40 41 42 43 44 45 46 47 48 49 50

298
FPUS83 KFGF 190231
OPUFGF
PRAIRIE TO PINES WEATHER ROUNDUP
NATIONAL WEATHER SERVICE EASTERN NORTH DAKOTA/GRAND FORKS ND
800 PM CST THU JAN 18 2018

 **SATELLITE DATA USED TO AUGMENT SKY COVER AT AUTOMATED STATIONS**
 *****  WEATHER ACROSS EASTERN NORTH DAKOTA  *****

CITY           SKY/WX    TMP DP  RH WIND       PRES   REMARKS
GRAND FORKS    MOCLDY    26  22  84 S12       29.61F WCI  16
GRND FORKS AFB FAIR      27  22  81 S9        29.60F WCI  17
GRND FORKS NWS   N/A     27 N/A N/A S9          N/A  WCI  17
BUXTON           N/A     27  27  99 S8          N/A  WCI  19
DEVILS LAKE    FAIR      30  24  78 SW13      29.57F WCI  20
FARGO          FAIR      28  24  85 S10       29.66F WCI  19
WAHPETON ARPT  FAIR      30  25  80 SE7       29.69F WCI  23
$$

 *****  WEATHER ACROSS CENTRAL AND WESTERN NORTH DAKOTA  *****

CITY           SKY/WX    TMP DP  RH WIND       PRES   REMARKS
JAMESTOWN      FAIR      35  26  69 SW16      29.61F
BISMARCK       FAIR      30  25  81 CALM      29.66F
MINOT          FAIR      42  29  59 SW16G22   29.55F
MINOT AFB      FAIR      39  29  68 W12       29.54F
GARRISON         N/A     31  25  78 SW3       29.61F
WILLISTON      FAIR      51  30  44 S5        29.62F
DICKINSON      FAIR      40  28  62 W18       29.64F
HETTINGER      FAIR      37  27  67 SW6       29.70F
$$

 *****  OTHER OBSERVATIONS NORTHEAST NORTH DAKOTA  *****

CITY           SKY/WX    TMP DP  RH WIND       PRES   REMARKS
WALHALLA       FAIR      27  23  86 SE8       29.53F WCI  18
LANGDON        FAIR      27  25  93 SW17      29.53F WCI  14
CAVALIER         N/A     25  21  86 S8        29.55F WCI  16
GRAFTON        FAIR      23  21  93 S10       29.60F WCI  12
CANDO          FAIR      27  27 100 SW7       29.57S WCI  19
FORT TOTTEN    NOT AVBL
ROLLA          FAIR      32  27  80 SW16      29.51F WCI  21
RUGBY          FAIR      30  25  80 SW13      29.56S WCI  20
 ***** THE ABOVE OBSERVATIONS ARE NON NWS ARE NOT QUALITY
        CONTROLLED AND MAY MIS-REPORT RAIN FOR SNOW...
$$

 *****  OTHER OBSERVATIONS SOUTHEAST NORTH DAKOTA *****

CITY           SKY/WX    TMP DP  RH WIND       PRES   REMARKS
COOPERSTOWN    FAIR      28  25  86 SW9       29.62F WCI  20
VALLEY CITY    FAIR      32  30  93 SW10      29.64S WCI  24
OAKES            N/A     32  28  86 SW13G18   29.67S WCI  22
GWINNER          N/A     32  28  86 SW13      29.66F WCI  22
SHEYENNE NWR     N/A     30  29  95 SW6       29.95S WCI  24
BUFFALO          N/A     30  24  79 NE6         N/A  WCI  24
WYNDMERE       NOT AVBL
 ***** THE ABOVE OBSERVATIONS ARE NON NWS ARE NOT QUALITY
       CONTROLLED AND MAY MIS-REPORT RAIN FOR SNOW...
$$

  *****  WEATHER ACROSS NORTHERN MINNESOTA  *****

CITY           SKY/WX    TMP DP  RH WIND       PRES   REMARKS
FLAG ISLAND    FAIR      21  19  93 S8        29.60F WCI  12
WARROAD        FAIR      25  19  80 S3        29.61F
ROSEAU         FAIR      25  19  80 S12       29.60F WCI  14
HALLOCK        FAIR      23  19  86 S15       29.58F WCI  10
THF RVR FALLS  FAIR      22  19  89 S9        29.64F WCI  12
HALSTAD        NOT AVBL
FOSSTON        FAIR      23  18  80 S13       29.65S WCI  11
BAUDETTE       FAIR      26  23  88 S5        29.62F WCI  20
WASKISH        FAIR      25  21  86 CALM      29.64F
CROOKSTON      FAIR      25  21  86 S12       29.64F WCI  14
$$
  *****  WEATHER ACROSS CENTRAL AND WEST MINNESOTA  *****

CITY           SKY/WX    TMP DP  RH WIND       PRES   REMARKS
BEMIDJI        FAIR      22  20  93 S5        29.63F WCI  15
PARK RAPIDS    FAIR      21  16  81 S5        29.66F WCI  15
WADENA         FAIR      23  19  86 S5        29.67F WCI  17
DETROIT LAKES  FAIR      28  23  80 SW5       29.68S WCI  23
MOORHEAD       FAIR      30  25  80 S9        29.68F WCI  22
FERGUS FALLS   FAIR      25  21  86 S5        29.69F WCI  19
ELBOW LAKE     FAIR      27  24  89 S6        29.71F WCI  20
MORRIS MN      FAIR      28  27  93 S6        29.70F WCI  22
STAPLES        FAIR      23  19  86 S5        29.68F WCI  17
WHEATON        NOT AVBL
$$
  *****  WEATHER ELSEWHERE ACROSS MINNESOTA  *****

CITY           SKY/WX    TMP DP  RH WIND       PRES   REMARKS
DULUTH         FAIR      24  21  88 CALM      29.68F
INTRNTL FALLS  CLOUDY    27  22  81 SW6       29.66F WCI  20
ELY            CLOUDY    27  23  86 W3        29.67S
CLOQUET        FAIR      28  25  86 CALM      29.69S
BRAINERD       FAIR      24  19  81 SW5       29.71S WCI  18
HIBBING        FAIR      20  19  96 CALM      29.66F FOG
ALEXANDRIA     FAIR      28  23  81 S3        29.72F
SAINT CLOUD    FAIR      28  24  85 CALM      29.73F
MINNEAPOLIS    CLOUDY    35  29  78 S6        29.77F
$$

  *****  WEATHER ACROSS SOUTH DAKOTA  *****

CITY           SKY/WX    TMP DP  RH WIND       PRES   REMARKS
SIOUX FALLS    CLOUDY    31  26  82 SW5       29.79F
BROOKINGS      FAIR      32  28  85 S6        29.77F
WATERTOWN      FAIR      30  26  85 S5        29.73F
HURON          FAIR      31  28  89 S6        29.76F
SISSETON         N/A     37  25  61 S6        29.69F
ABERDEEN       FAIR      31  26  82 S8        29.71F WCI  23
MITCHELL       FAIR      35  29  78 S8        29.78F
PIERRE         FAIR      31  26  82 NE3       29.73F
MOBRIDGE       FAIR      33  26  75 SE8       29.67F
RAPID CITY     FAIR      36  26  67 NW5       29.74S
$$

  *****  SOME WEATHER IN NEARBY STATES *****

CITY           SKY/WX    TMP DP  RH WIND       PRES   REMARKS
GLASGOW MT     CLOUDY    34  29  82 CALM      29.61F
GREAT FALLS MT CLOUDY    40  32  73 S13       29.69S
CHEYENNE WY    FAIR      48  17  29 SW12      29.97S
SCOTTSBLUFF NE FAIR      46  31  55 W12       29.88F
OMAHA NE       FAIR      28  21  75 S10       29.94F WCI  19
DES MOINES IA  FAIR      32  21  64 SW9       29.95S WCI  24
DAVENPORT IA   FAIR      33  20  58 SW17      29.99F WCI  22
CHICAGO IL     FAIR      31  20  63 SW14      29.97F WCI  21
EAU CLAIRE WI  FAIR      25  20  81 S7        29.78F WCI  17
LA CROSSE WI   FAIR      30  21  69 S8        29.87F WCI  22
$$

  *****  SOME NATIONAL WEATHER *****

CITY           SKY/WX    TMP DP  RH WIND       PRES   REMARKS
LA GUARDIA NY  FAIR      29  13  51 NW15      30.06R WCI  18
RALEIGH NC     FAIR      23  20  88 SW7       30.23R WCI  15
ATLANTA GA     FAIR      32  13  45 NW8       30.32F WCI  25
NEW ORLEANS LA FAIR      37  22  54 CALM      30.44S
OKLAHOMA CITY  FAIR      37  15  40 S10       30.16F
ALBUQUERQUE NM FAIR      45  11  25 SW3       30.18R
SALT LAKE CITY CLOUDY    43  35  73 W6        29.97F
LOS ANGELES CA FAIR      63  56  78 W10       30.02R
BOISE ID       LGT RAIN  42  38  85 N12       29.86S FOG
SEATTLE WA     MOCLDY    43  39  86 SE10      29.79S
$$

*** WEATHER ACROSS MANITOBA...SASKATCHEWAN AND ONTARIO ***
                ***ONTARIO***

CITY           SKY/WX    TMP DP  RH WIND       PRES   REMARKS
GERALDTON      FRZ DRZL  16  14  93 SE5       29.67S WCI   9
THUNDER BAY    CLOUDY    27  25  93 NE2       29.69R
SIOUX LOOKOUT  FRZ DRZL  21  19  93 S3        29.59F VSB 3/4
TORONTO        MOCLDY    25  18  74 SW7       29.91F WCI  17
BIG TROUT LK   CLOUDY     7   3  85 SE6       29.67S WCI  -3
PICKLE LAKE    FLURRIES  14  12  92 S6        29.60F WCI   5
DRYDEN         CLOUDY    23  21  93 SW9       29.60F WCI  13
KENORA         CLOUDY    21  18  86 SW8       29.59F WCI  12
$$
                *** MANITOBA***

CITY           SKY/WX    TMP DP  RH WIND       PRES   REMARKS
BRANDON        CLOUDY    23  19  86 W8        29.46F WCI  14
DAUPHIN        CLEAR     19  19 100 E2        29.37F
ISLAND LAKE    CLOUDY    14   9  79 SE9       29.53F WCI   2
PILOT MOUND      N/A     25  21  86 S9          N/A  WCI  15
THE PAS        FLURRIES  14  10  85 E10G17    29.35F WCI   1
THOMPSON       FLURRIES   7   3  85 E5        29.52F WCI  -2
WINNIPEG       CLOUDY    23  19  86 S16       29.53F WCI  10
LYNN LAKE      LGT SNOW   9   7  92 E7        29.41F WCI  -3
CHURCHILL      FLURRIES   1  -2  85 E7        29.75F WCI -11
$$
                ***SASKATCHEWAN***

CITY           SKY/WX    TMP DP  RH WIND       PRES   REMARKS
ESTEVAN        MOCLDY    36  28  75 W13G22    29.52R
KINDERSLEY     CLOUDY    36  32  87 W16G22    29.41R
LLOYDMINSTER   PTCLDY    30  27  86 W12       29.31S WCI  21
PRINCE ALBERT  PTCLDY    27  25  93 SW8       29.28R WCI  18
REGINA         PTCLDY    37  30  75 SW17G24   29.44F
YORKTON        MOCLDY    36  30  80 S17G24    29.34F
N. BATTLEFORD  CLEAR     30  25  80 SW9       29.35S WC



USA.gov is the U.S. government's official web portal to all federal, state and local government web resources and services.